Location: Evergreen Manor
(41.4083°N, 81.4939°W)
Time: 04:33:22
(UTC+00:00)

Cosmos 2084 Rocket - Pass Details

Date: 11 December 2019
Orbit: 572 x 609 km, 62.8° (Epoch: 18 January)

Event Time Altitude Azimuth Distance (km) Brightness Sun altitude
Exits shadow 10:26:58 41° 187° (S) 884 4.3 -24.5°
Drops below altitude 10° 10:30:04 10° 161° (SSE) 1,941 6.4 -23.9°
Sets 10:32:20 0° 157° (SSE) 2,834 7.4 -23.5°
